Home   Weather   Saanich   Past weeks

Flag for Canada Past Weather in Saanich, British Columbia, Canada — Yesterday and Last 2 Weeks

45 °F

Passing clouds.

Feels Like: 41 °F
Forecast: 50 / 53 °F
Wind: 7 mph from West

Location: Victoria Int. Airportb. C.

Current Time: Oct 26, 2016 at 12:42:48 AM

Latest Report: Oct 26, 2016 at 12:00 AM

Visibility: 30 mi

Pressure: 29.99 "Hg

Humidity: 100%

Dew Point: 45 °F

Location of SaanichLocation

Past Weather in Saanich — Graph


Saanich Temperature Yesterday

Maximum temperature yesterday: 57 °F (at 3:00 PM)
Minimum temperature yesterday: 45 °F (at 9:00 PM)
Average temperature yesterday: 52 °F

High & Low Weather Summary for the Past Weeks

High64 °F (Oct 20, 1:00 PM)100% (Oct 13, 1:00 AM)30.29 "Hg (Oct 13, 1:00 AM)
Low36 °F (Oct 12, 6:47 AM)41% (Oct 11, 5:00 PM)28.95 "Hg (Oct 15, 5:00 PM)
Average51 °F88%29.77 "Hg
* Reported Oct 10 11:00 PM — Oct 25 11:00 PM, Saanich, Weather by CustomWeather, © 2016

Note: Actual official high and low records may vary slightly from our data, if they occured in-between our weather recording intervals... More about our weather records


Saanich Weather History for the Previous 24 Hours

Scroll right to see more
Time TempWeatherWind HumidityBarometerVisibility
11:00 PM
Tue, Oct 25
46 °FPassing clouds.7 mph93%29.99 "Hg30 mi
10:00 PM48 °FPassing clouds.5 mph94%30.00 "Hg30 mi
9:00 PM45 °FPassing clouds.3 mph93%29.99 "Hg30 mi
8:00 PM48 °FPassing clouds.No wind87%29.99 "Hg20 mi
7:00 PM52 °FPassing clouds.5 mph88%29.98 "Hg20 mi
6:00 PM54 °FPassing clouds.7 mph82%29.98 "Hg20 mi
5:00 PM55 °FPassing clouds.2 mph77%29.96 "Hg20 mi
4:00 PM57 °FPassing clouds.6 mph77%29.95 "Hg20 mi
3:00 PM57 °FPartly sunny.3 mph77%29.95 "Hg20 mi
2:00 PM55 °FLight rain. Partly sunny.8 mph82%29.93 "Hg20 mi
1:00 PM55 °FLight rain. Partly sunny.8 mph82%29.92 "Hg20 mi
12:00 PM54 °FLight rain. Partly sunny.8 mph88%29.90 "Hg20 mi
11:00 AM54 °FLight rain. More clouds than sun.10 mph82%29.87 "Hg20 mi
10:00 AM54 °FLight rain. Partly sunny.15 mph82%29.84 "Hg20 mi
9:00 AM52 °FPartly sunny.14 mph88%29.81 "Hg20 mi
8:00 AM52 °FPartly sunny.16 mph88%29.78 "Hg15 mi
7:00 AM52 °FPassing clouds.14 mph82%29.76 "Hg20 mi
6:00 AM52 °FMostly cloudy.16 mph82%29.74 "Hg20 mi
5:00 AM52 °FMostly cloudy.14 mph82%29.73 "Hg20 mi
4:00 AM52 °FPassing clouds.5 mph82%29.73 "Hg20 mi
3:00 AM52 °FPassing clouds.18 mph88%29.72 "Hg20 mi
2:00 AM48 °FPassing clouds.3 mph87%29.72 "Hg20 mi
1:00 AM50 °FPassing clouds.3 mph88%29.71 "Hg20 mi
12:00 AM52 °FPassing clouds.7 mph88%29.71 "Hg20 mi
Weather by CustomWeather, © 2016

See weather overviewHow to use our weather pages